Weather History for Atlanta Dekalb, GA

Change the Weather History Date:

Friday, March 8, 2013

  Actual Average Record
Temperature  
Mean Temperature 46 °F 51 °F  
Max Temperature 63 °F 62 °F 73 °F (2007)
Min Temperature 28 °F 40 °F 28 °F (2013)
Degree Days  
Heating Degree Days 20 14  
Month to date heating degree days 120  
Since 1 July heating degree days 2521  
Cooling Degree Days 0 0  
Month to date cooling degree days 0  
Year to date cooling degree days 0  
Moisture  
Dew Point 25 °F    
Average Humidity 48    
Maximum Humidity 89    
Minimum Humidity 23    
Precipitation  
Precipitation 0.00 in 0.17 in 0.09 in (2005)
Month to date precipitation 1.43  
Year to date precipitation 11.24  
Sea Level Pressure  
Sea Level Pressure 30.27 in    
Wind  
Wind Speed 4 mph (NW)    
Max Wind Speed 10 mph    
Max Gust Speed -    
Visibility 10 miles    
Events      
T = Trace of Precipitation, MM = Missing Value Source: NWS Daily Summary

Daily Weather History Graph

Daily Weather History Graph

Search for Another Location

Airport:

Trip Planner

Search our weather history database for the weather conditions in past years. The results will help you decide how hot, cold, wet, or windy it might be!

Date:

Astronomy

Mar. 08, 2013 Rise Set
Actual Time 6:56 AM EST 6:39 PM EST
Civil Twilight 6:31 AM EST 7:04 PM EST
Nautical Twilight 6:02 AM EST 7:33 PM EST
Astronomical Twilight 5:33 AM EST 8:02 PM EST
Moon 4:32 AM EST (3/8) 3:40 PM EST (3/8)
Length of Visible Light 12h 32m
Length of Day
11h 43m
Waning Crescent, 12% of the Moon is Illuminated
Mar 8
Waning Crescent
Mar 11
New
Mar 19
First Quarter
Mar 27
Full
Apr 3
Last Quarter

Hourly Weather History & Observations

Time (EST) Temp. Windchill Dew Point Humidity Pressure Visibility Wind Dir Wind Speed Gust Speed Precip Events Conditions
12:53 AM 37.0 °F 34.5 °F 28.9 °F 73% 30.24 in 10.0 mi NW 3.5 mph - N/A   Clear
1:53 AM 36.0 °F 31.1 °F 28.0 °F 73% 30.25 in 10.0 mi NW 5.8 mph - N/A   Clear
2:53 AM 35.1 °F 30.1 °F 28.0 °F 76% 30.27 in 10.0 mi NW 5.8 mph - N/A   Clear
3:53 AM 33.1 °F 30.0 °F 27.0 °F 78% 30.27 in 10.0 mi North 3.5 mph - N/A   Clear
4:53 AM 30.9 °F - 27.0 °F 85% 30.28 in 10.0 mi Calm Calm - N/A   Clear
5:53 AM 28.9 °F 25.2 °F 26.1 °F 89% 30.30 in 10.0 mi North 3.5 mph - N/A   Clear
6:53 AM 28.9 °F - 26.1 °F 89% 30.33 in 9.0 mi Calm Calm - N/A   Clear
7:53 AM 33.1 °F 30.0 °F 28.0 °F 82% 30.34 in 8.0 mi North 3.5 mph - N/A   Clear
8:53 AM 39.9 °F - 28.0 °F 63% 30.34 in 10.0 mi Calm Calm - N/A   Clear
9:53 AM 44.1 °F - 25.0 °F 47% 30.34 in 10.0 mi Calm Calm - N/A   Clear
10:53 AM 46.9 °F - 25.0 °F 42% 30.34 in 10.0 mi West 3.5 mph - N/A   Clear
11:53 AM 52.0 °F - 26.1 °F 37% 30.33 in 10.0 mi Calm Calm - N/A   Clear
12:53 PM 57.9 °F - 23.0 °F 26% 30.30 in 10.0 mi NNW 8.1 mph - N/A   Clear
1:53 PM 60.1 °F - 21.9 °F 23% 30.25 in 10.0 mi NW 3.5 mph - N/A   Clear
2:08 PM 60.8 °F - 24.8 °F 25% 30.23 in 10.0 mi NNW 9.2 mph - N/A   Clear
2:10 PM 60.8 °F - 23.0 °F 23% 30.23 in 10.0 mi Variable 5.8 mph - N/A   Clear
2:53 PM 61.0 °F - 25.0 °F 25% 30.24 in 10.0 mi NW 6.9 mph - N/A   Clear
3:53 PM 62.1 °F - 24.1 °F 23% 30.23 in 10.0 mi Calm Calm - N/A   Clear
4:53 PM 63.0 °F - 25.0 °F 24% 30.23 in 10.0 mi North 4.6 mph - N/A   Clear
5:53 PM 60.1 °F - 24.1 °F 25% 30.24 in 10.0 mi SW 4.6 mph - N/A   Clear
6:53 PM 55.9 °F - 25.0 °F 30% 30.25 in 10.0 mi WNW 4.6 mph - N/A   Clear
7:53 PM 54.0 °F - 23.0 °F 30% 30.27 in 10.0 mi NW 10.4 mph - N/A   Clear
8:53 PM 50.0 °F - 21.0 °F 32% 30.26 in 10.0 mi NW 4.6 mph - N/A   Clear
9:53 PM 48.9 °F - 21.0 °F 33% 30.26 in 10.0 mi WNW 3.5 mph - N/A   Clear
10:53 PM 43.0 °F - 23.0 °F 45% 30.27 in 10.0 mi Calm Calm - N/A   Clear
11:53 PM 41.0 °F - 25.0 °F 53% 30.25 in 10.0 mi Calm Calm - N/A   Clear